Flag for Germany Weather past 2 weeks in Wiesbaden, Hesse, Germany

Now
63 °F

Clear.


Feels Like: 63 °F
Forecast: 58 / 76 °F
Wind: 6 mph from Northeast

Location: Wiesbaden Airport

Current Time: Sep 18, 2014 at 2:11:01 AM

Latest Report: Sep 18, 2014 at 1:58 AM


Visibility: N/A

Pressure: 29.87 "Hg

Humidity: 80%

Dew point: 57 °F

Location of WiesbadenLocation

Historic Weather in Wiesbaden — Graph

°F

Wiesbaden temperature yesterday

Maximum temperature yesterday: 77 °F (at 3:58 PM)
Minimum temperature yesterday: 56 °F (at 5:58 AM)
Average temperature yesterday: 66 °F

Past Weeks' High & Low Weather Summary

 TemperatureHumidityPressure
High79 °F (Sep 5, 4:58 PM)100% (Sep 5, 7:58 AM)30.20 "Hg (Sep 5, 7:58 AM)
Low52 °F (Sep 11, 2:58 AM)38% (Sep 9, 4:58 PM)29.86 "Hg (Sep 6, 5:58 PM)
Average64 °F77%30.03 "Hg
* Reported Sep 3 12:58 AM — Sep 18 12:58 AM, Wiesbaden, Weather by CustomWeather, © 2014

Note: Actual official high and low records may vary slightly from our data, if they occured in-between our weather recording intervals... More about our weather records

Advertising

Wiesbaden weather history for previous 24 hours

 ConditionsComfort  
Time TempWeatherWind HumidityBarometerVisibility
12:58 AM
Sep 18
63 °FClear.2 mph83%29.88 "HgN/A
11:58 PM
Sep 17
64 °FClear.No wind78%29.88 "HgN/A
10:58 PM66 °FClear.7 mph78%29.88 "HgN/A
9:58 PM66 °FClear.6 mph78%29.88 "HgN/A
8:58 PM69 °FClear.5 mph71%29.88 "HgN/A
7:58 PM70 °FSunny.6 mph67%29.89 "HgN/A
6:58 PM73 °FSunny.6 mph61%29.88 "HgN/A
5:58 PM75 °FSunny.9 mph54%29.86 "HgN/A
4:58 PM76 °FSunny.10 mph49%29.87 "HgN/A
3:58 PM77 °FSunny.10 mph54%29.87 "HgN/A
2:58 PM75 °FSunny.8 mph57%29.89 "HgN/A
1:58 PM73 °FSunny.7 mph61%29.91 "HgN/A
12:58 PM72 °FSunny.6 mph65%29.91 "HgN/A
11:58 AM68 °FSunny.8 mph73%29.93 "HgN/A
10:58 AM66 °FSunny.8 mph76%29.93 "HgN/A
9:58 AM64 °FSunny.10 mph78%29.93 "HgN/A
8:58 AM62 °FSunny.8 mph83%29.94 "HgN/A
7:58 AM59 °FClear.5 mph90%29.94 "HgN/A
6:58 AM57 °FClear.No wind94%29.94 "HgN/A
5:58 AM56 °FClear.No wind94%29.94 "HgN/A
4:58 AM59 °FClear.2 mph88%29.93 "HgN/A
3:58 AM61 °FClear.2 mph88%29.93 "HgN/A
2:58 AM61 °FClear.6 mph86%29.94 "HgN/A
Weather by CustomWeather, © 2014

See weather overviewHow to use our weather pages